[[{"header":{"parameterUnit":"m.s-1","parameterCategory":1,"la1":30.2991,"la2":30.254,"lo1":-89.0895,"lo2":-89.0444,"dy":0.0017,"dx":0.0017,"nx":28,"ny":28,"refTime":"2024-07-25T21:00:00:Z","depth":0,"parameterNumber":2,"parameterNumberName":"U-component_of_WINDS"},"data":[0,0,0,0,0,0,0,0,0,0,0,0,0,0,0,0,0,0,0,0,0,0,0,0,0,0,0,0,0,0,0,0,0,0,0,0,0,0,0,0,0,0,0,0,0,0,0,0,0,0,0,0,0,0,0,0,0,0,-0.1015,-0.1015,0,-0.0996,-0.0995,-0.0995,-0.1007,-0.1008,-0.1009,-0.1009,-0.0989,-0.0988,-0.0987,0,0,0,0,0,0,0,0,0,0,0,0,0,-0.1063,-0.1062,-0.1015,-0.1015,-0.1015,-0.0996,-0.0995,-0.0995,-0.1007,-0.1008,-0.1009,-0.1009,-0.099,-0.0988,-0.0987,0,0,0,0,0,0,0,0,0,0,0,0,0,-0.1043,-0.1062,-0.1015,-0.1018,-0.1019,-0.0996,-0.0995,-0.0995,-0.1007,-0.1008,-0.1009,-0.101,-0.099,-0.0988,-0.0987,-0.096,0,0,-0.0982,-0.0981,0,0,0,0,0,0,0,0,-0.1044,-0.1041,-0.1018,-0.1018,-0.1018,-0.1005,-0.1005,-0.0983,-0.1007,-0.1011,-0.1009,-0.101,-0.0994,-0.0992,-0.0986,-0.0959,-0.0958,-0.0982,-0.0981,-0.098,-0.098,0,0,0,0,0,0,0,-0.1045,-0.1042,-0.1007,-0.1018,-0.1018,-0.1021,-0.1019,-0.1001,-0.0998,-0.1011,-0.1012,-0.101,-0.0994,-0.0988,-0.0986,-0.0958,-0.0982,-0.0981,-0.098,-0.0979,-0.0907,-0.0906,0,0,0,0,0,0,-0.1047,-0.1043,-0.1008,-0.1007,-0.1034,-0.1019,-0.1017,-0.1008,-0.0998,-0.0998,-0.1009,-0.101,-0.099,-0.0988,-0.0985,-0.0953,-0.098,-0.0979,-0.0978,-0.0908,-0.0907,-0.0906,0,0,0,0,0,0,-0.1048,-0.1043,-0.1009,-0.1025,-0.1021,-0.1018,-0.1008,-0.1007,-0.1001,-0.0996,-0.0996,-0.1003,-0.0991,-0.0988,-0.0966,-0.0952,-0.0978,-0.0977,-0.0909,-0.0908,-0.0907,-0.0888,0,0,0,0,0,0,-0.1049,-0.1044,-0.1033,-0.1025,-0.102,-0.099,-0.1007,-0.1006,-0.0999,-0.1,-0.0991,-0.099,-0.0991,-0.0968,-0.0965,-0.0951,-0.0975,-0.091,-0.0909,-0.0907,-0.089,-0.0886,-0.0883,0,0,0,0,0,-0.1051,-0.1029,-0.1033,-0.1028,-0.1007,-0.0989,-0.0986,-0.0988,-0.0997,-0.0987,-0.0984,-0.0991,-0.0955,-0.0966,-0.0962,-0.0947,-0.0911,-0.0909,-0.0907,-0.0891,-0.0887,-0.0883,0,0,0,0,0,0,-0.1036,-0.1028,-0.1032,-0.1007,-0.0998,-0.0991,-0.0978,-0.0983,-0.0972,-0.0974,-0.0976,-0.0974,-0.0951,-0.0947,-0.096,-0.0921,-0.0935,-0.0931,-0.0924,-0.092,-0.0916,-0.0918,-0.0974,0,0,0,0,0,-0.1029,-0.1015,-0.1009,-0.0988,-0.0983,-0.0981,-0.0973,-0.0975,-0.0967,-0.0963,-0.0959,-0.095,-0.0937,-0.0928,-0.0916,-0.0889,-0.0887,-0.0877,-0.0874,-0.0871,-0.0868,-0.0854,-0.0849,-0.0899,-0.0899,-0.0899,0,0,-0.1016,-0.101,-0.1001,-0.0984,-0.0978,-0.0964,-0.0978,-0.0962,-0.0951,-0.0961,-0.094,-0.0937,-0.0927,-0.0903,-0.0892,-0.0899,-0.0854,-0.0868,-0.0866,-0.0865,-0.0851,-0.0847,-0.0842,-0.0898,-0.0898,-0.0898,0,0,-0.0985,-0.0979,-0.0961,-0.0954,-0.0944,-0.0943,-0.0939,-0.0931,-0.0928,-0.0908,-0.0915,-0.0902,-0.0879,-0.0872,-0.0866,-0.0832,-0.0838,-0.0828,-0.081,-0.0796,-0.0792,-0.0788,-0.0776,-0.0772,-0.0825,-0.0825,-0.0825,0,-0.097,-0.0948,-0.095,-0.0934,-0.0926,-0.0934,-0.0915,-0.0909,-0.0896,-0.089,-0.0898,-0.087,-0.0864,-0.0838,-0.083,-0.0825,-0.082,-0.0829,-0.0792,-0.0789,-0.0786,-0.0774,-0.0769,-0.0824,-0.0824,-0.0824,-0.0824,0,-0.093,-0.0915,-0.0901,-0.0888,-0.0879,-0.0861,-0.0861,-0.0851,-0.0854,-0.0852,-0.0831,-0.0825,-0.0811,-0.0805,-0.0807,-0.078,-0.0784,-0.0792,-0.0806,-0.078,-0.0769,-0.0764,-0.0822,-0.0823,-0.0823,-0.0823,0,0,-0.0889,-0.0877,-0.0872,-0.0866,-0.0856,-0.0845,-0.0827,-0.0814,-0.0806,-0.0797,-0.0782,-0.0763,-0.077,-0.0763,-0.0764,-0.0752,-0.0726,-0.0762,-0.0761,-0.0755,-0.0694,-0.0688,-0.0683,-0.0729,-0.0729,-0.0728,-0.0695,0,-0.0857,-0.0827,-0.0828,-0.08,-0.0786,-0.0793,-0.0778,-0.077,-0.0768,-0.0756,-0.0754,-0.074,-0.0751,-0.0746,-0.0734,-0.0731,-0.0713,-0.0734,-0.0716,-0.0715,-0.0718,-0.0677,-0.0671,-0.064,-0.0691,-0.069,-0.0689,0,-0.0816,-0.0805,-0.0775,-0.0767,-0.0761,-0.0748,-0.0735,-0.0724,-0.0715,-0.0714,-0.0706,-0.071,-0.0693,-0.0707,-0.0683,-0.0697,-0.069,-0.0687,-0.0686,-0.0684,-0.07,-0.0674,-0.063,-0.0625,-0.0683,-0.0683,-0.0684,0,-0.0788,-0.0766,-0.0745,-0.074,-0.0731,-0.0721,-0.0716,-0.0709,-0.07,-0.069,-0.0685,-0.0672,-0.0665,-0.0656,-0.0656,-0.0667,-0.0631,-0.0646,-0.063,-0.063,-0.0622,-0.0623,-0.0576,-0.0618,-0.0618,-0.0618,-0.0618,0,-0.0752,-0.0733,-0.0733,-0.072,-0.07,-0.0701,-0.0681,-0.0678,-0.0671,-0.0657,-0.0663,-0.0651,-0.0652,-0.0639,-0.064,-0.062,-0.0617,-0.0615,-0.0616,-0.0615,-0.0615,-0.061,-0.0612,-0.0617,-0.0617,-0.0617,-0.0618,0,-0.0718,-0.0717,-0.0695,-0.0687,-0.0685,-0.067,-0.0664,-0.0652,-0.065,-0.0633,-0.0629,-0.0627,-0.0612,-0.0611,-0.0595,-0.0595,-0.057,-0.0573,-0.0573,-0.0573,-0.0557,-0.0559,-0.0506,-0.0499,-0.0546,-0.0545,-0.0545,0,-0.0695,-0.0681,-0.0672,-0.0663,-0.0658,-0.0644,-0.0636,-0.0637,-0.0628,-0.0618,-0.0607,-0.0593,-0.0581,-0.0558,-0.0554,-0.0542,-0.0544,-0.0526,-0.0542,-0.0541,-0.0543,-0.0544,-0.0542,-0.0523,-0.0522,-0.0522,-0.0522,0,-0.0654,-0.0654,-0.0642,-0.0629,-0.0619,-0.0609,-0.06,-0.0593,-0.0593,-0.0583,-0.0568,-0.0559,-0.0542,-0.0528,-0.0516,-0.0511,-0.0516,-0.0517,-0.0512,-0.0511,-0.0512,-0.0511,-0.0564,-0.0518,-0.0518,-0.0519,-0.0519,-0.0519,-0.0624,-0.0612,-0.0604,-0.059,-0.0583,-0.0575,-0.0563,-0.056,-0.0547,-0.0533,-0.0535,-0.0518,-0.051,-0.0494,-0.0488,-0.0475,-0.0481,-0.0475,-0.0473,-0.0472,-0.047,-0.0514,-0.0473,-0.0473,-0.0473,-0.0473,-0.0473,0,-0.0584,-0.0579,-0.0566,-0.0553,-0.0542,-0.0548,-0.0538,-0.0529,-0.0514,-0.0506,-0.0495,-0.0477,-0.0464,-0.0459,-0.0446,-0.0436,-0.0438,-0.0433,-0.0433,-0.0432,-0.0465,-0.047,-0.0431,-0.0431,-0.0431,-0.0431,-0.0431,-0.0431,-0.0561,-0.0541,-0.054,-0.0516,-0.0511,-0.0495,-0.0489,-0.0481,-0.0474,-0.0455,-0.0443,-0.0441,-0.0434,-0.042,-0.0408,-0.0407,-0.0402,-0.0395,-0.0395,-0.0426,-0.043,-0.0434,-0.0439,-0.0394,-0.0394,-0.0363,-0.0363,-0.0362]},{"header":{"parameterUnit":"m.s-1","parameterCategory":1,"la1":30.2991,"la2":30.254,"lo1":-89.0895,"lo2":-89.0444,"dy":0.0017,"dx":0.0017,"nx":28,"ny":28,"refTime":"2024-07-25T21:00:00:Z","depth":0,"parameterNumber":3,"parameterNumberName":"V-component_of_WINDS"},"data":[0,0,0,0,0,0,0,0,0,0,0,0,0,0,0,0,0,0,0,0,0,0,0,0,0,0,0,0,0,0,0,0,0,0,0,0,0,0,0,0,0,0,0,0,0,0,0,0,0,0,0,0,0,0,0,0,0,0,2.1825,2.1825,0,2.1837,2.1837,2.1837,2.1774,2.1772,2.177,2.1769,2.1782,2.1784,2.1786,0,0,0,0,0,0,0,0,0,0,0,0,0,2.1745,2.1747,2.1825,2.1825,2.1825,2.1837,2.1837,2.1837,2.1774,2.1772,2.177,2.1768,2.1781,2.1783,2.1786,0,0,0,0,0,0,0,0,0,0,0,0,0,2.1771,2.1748,2.1825,2.1795,2.1792,2.1837,2.1837,2.1837,2.1775,2.1772,2.1769,2.1767,2.178,2.1783,2.1786,2.186,0,0,2.1796,2.1797,0,0,0,0,0,0,0,0,2.177,2.1774,2.1799,2.1797,2.1794,2.1801,2.1814,2.1845,2.1776,2.1782,2.1769,2.1765,2.179,2.1792,2.1801,2.186,2.1861,2.1796,2.1798,2.1799,2.18,0,0,0,0,0,0,0,2.1768,2.1773,2.1829,2.18,2.1797,2.1781,2.1781,2.1819,2.1801,2.1781,2.1776,2.1779,2.1788,2.1798,2.1801,2.1861,2.1796,2.1798,2.18,2.1802,2.198,2.1982,0,0,0,0,0,0,2.177,2.1772,2.1829,2.183,2.1775,2.1784,2.1785,2.1802,2.1801,2.1798,2.1781,2.1776,2.1794,2.1797,2.1801,2.1885,2.1799,2.1802,2.1804,2.1977,2.198,2.1983,0,0,0,0,0,0,2.1769,2.1776,2.1829,2.18,2.1805,2.1789,2.1808,2.1803,2.1813,2.1801,2.1797,2.1794,2.1792,2.1796,2.1845,2.1885,2.1803,2.1806,2.1973,2.1978,2.1982,2.2056,0,0,0,0,0,0,2.1767,2.1776,2.1804,2.1801,2.1807,2.1873,2.181,2.1806,2.1818,2.1811,2.1812,2.1809,2.179,2.1841,2.1848,2.1888,2.1808,2.197,2.1975,2.198,2.205,2.2063,2.2073,0,0,0,0,0,2.1764,2.1825,2.1806,2.1813,2.1842,2.1876,2.1879,2.1856,2.1822,2.185,2.1841,2.1809,2.188,2.1846,2.1854,2.1895,2.1967,2.1974,2.198,2.2045,2.206,2.2073,0,0,0,0,0,0,2.1834,2.1824,2.1803,2.1864,2.1871,2.1865,2.19,2.1873,2.189,2.1883,2.1853,2.1854,2.1907,2.1906,2.1869,2.1965,2.1917,2.1926,2.1964,2.1978,2.199,2.1988,2.1811,0,0,0,0,0,2.1856,2.1885,2.1875,2.193,2.1935,2.1917,2.1931,2.1912,2.1918,2.192,2.1916,2.1923,2.1946,2.1962,2.1983,2.205,2.2048,2.2082,2.2093,2.2103,2.211,2.2143,2.2157,2.2005,2.2005,2.2005,0,0,2.1904,2.1902,2.1921,2.1944,2.1947,2.1977,2.192,2.1954,2.1975,2.1926,2.1971,2.1968,2.1973,2.2031,2.2056,2.2031,2.2152,2.2111,2.2119,2.2121,2.2151,2.2166,2.2179,2.2009,2.2008,2.2008,0,0,2.2004,2.2006,2.2051,2.2055,2.206,2.2048,2.2059,2.2056,2.2052,2.2096,2.2059,2.2084,2.2126,2.2131,2.2139,2.2239,2.221,2.2247,2.2307,2.2339,2.2351,2.2362,2.2396,2.2409,2.2254,2.2254,2.2255,0,2.2062,2.2104,2.2078,2.2114,2.2124,2.208,2.2125,2.2131,2.2143,2.2151,2.2123,2.2173,2.2174,2.2231,2.2255,2.2263,2.2274,2.2246,2.2352,2.2362,2.2371,2.2404,2.2417,2.2259,2.2258,2.2258,2.2257,0,2.2174,2.2205,2.2241,2.2252,2.2267,2.2307,2.2286,2.2304,2.2284,2.2274,2.2319,2.2318,2.2337,2.235,2.2331,2.2404,2.2388,2.2357,2.2308,2.2391,2.2421,2.2433,2.2265,2.2263,2.2262,2.2261,0,0,2.232,2.2315,2.2328,2.2332,2.2334,2.2356,2.2394,2.2412,2.2427,2.2437,2.2467,2.2502,2.2473,2.2482,2.2463,2.2492,2.2569,2.2457,2.2456,2.2476,2.2648,2.267,2.2685,2.255,2.2552,2.2554,2.2647,0,2.2417,2.2481,2.2457,2.2522,2.2549,2.2507,2.2539,2.2544,2.2535,2.2556,2.2547,2.2571,2.2532,2.2536,2.2563,2.2554,2.2603,2.2547,2.2577,2.2578,2.2576,2.2701,2.2725,2.2813,2.2658,2.266,2.2662,0,2.2538,2.2551,2.2619,2.2614,2.2624,2.2654,2.2668,2.2689,2.2692,2.2684,2.2693,2.2668,2.2703,2.2655,2.2704,2.2666,2.2677,2.2674,2.2677,2.2678,2.2624,2.2704,2.284,2.2853,2.268,2.2679,2.2677,0,2.2635,2.267,2.2714,2.2719,2.2715,2.2737,2.2736,2.2737,2.2748,2.2761,2.2768,2.2784,2.2793,2.2806,2.2785,2.2752,2.2836,2.2787,2.2829,2.283,2.2848,2.2847,2.2987,2.2858,2.2857,2.2857,2.2857,0,2.2745,2.2788,2.2758,2.2785,2.2831,2.2803,2.285,2.2845,2.2845,2.287,2.2835,2.286,2.2831,2.2852,2.2836,2.2878,2.2883,2.2876,2.2871,2.2879,2.2879,2.2885,2.2878,2.286,2.286,2.2859,2.2858,0,2.2862,2.2843,2.2889,2.288,2.2879,2.2913,2.2906,2.293,2.2919,2.2951,2.2957,2.2939,2.2962,2.2942,2.2965,2.2954,2.3009,2.2996,2.3008,2.3004,2.3047,2.3043,2.3194,2.3212,2.3072,2.3074,2.3075,0,2.2933,2.2964,2.2959,2.2972,2.2974,2.2997,2.3008,2.2982,2.2995,2.3,2.3024,2.3044,2.3058,2.3097,2.3086,2.3103,2.3089,2.3141,2.3091,2.3097,2.3088,2.3086,2.3088,2.3151,2.3152,2.3154,2.3155,0,2.306,2.3049,2.3066,2.308,2.3094,2.3104,2.3112,2.3125,2.3098,2.3114,2.3137,2.3148,2.317,2.319,2.3203,2.3202,2.3174,2.3171,2.3181,2.3189,2.3193,2.319,2.3034,2.3167,2.3166,2.3165,2.3164,2.3164,2.3155,2.318,2.3179,2.3199,2.3202,2.3209,2.3231,2.3221,2.324,2.3255,2.3239,2.3266,2.3267,2.3281,2.3283,2.3304,2.3282,2.3298,2.3302,2.3306,2.3311,2.3191,2.3306,2.3306,2.3306,2.3305,2.3305,0,2.3279,2.3276,2.3295,2.3305,2.3321,2.3292,2.3298,2.3313,2.3337,2.334,2.3355,2.338,2.3399,2.3389,2.3405,2.3423,2.341,2.3428,2.3426,2.3426,2.3331,2.3319,2.3438,2.3438,2.3438,2.3438,2.3438,2.3438,2.3345,2.3386,2.3374,2.3415,2.3412,2.3438,2.3443,2.3449,2.3451,2.3481,2.3496,2.3489,2.3486,2.3502,2.3517,2.3514,2.3521,2.3543,2.3535,2.3446,2.3433,2.342,2.3409,2.3545,2.3545,2.3628,2.3629,2.3629]}]]